Tracking 19636 objects as of 24-May-2019
HD Live streaming from Space Station
objects crossing your sky now

HELIOS-2A

Track HELIOS-2A now!
10-day predictions
HELIOS-2A is classified as:


NORAD ID: 28492
Int'l Code: 2004-049A
Perigee: 686.3 km
Apogee: 689.6 km
Inclination: 98.1 °
Period: 98.4 minutes
Semi major axis: 7058 km
RCS: Unknown
Launch date: December 18, 2004
Source: France (FR)
Launch site: FRENCH GUIANA (FRGUI)

Optical reconnaissance; independent military intelligence capability for the EU.
aabbcc
Your satellite tracking list
Your tracking list is empty




NASA's NSSDC Master Catalog

Two Line Element Set (TLE):
1 28492U 04049A   19134.04068725 0.00000110  00000-0  21098-4 0    01
2 28492  98.1390  70.4934 0002356  66.8493 293.1506 14.63831997    03
Source of the keplerian elements: McCants